This demonstration page uses our WeatherBlox Daily Observations layout. Learn more.

39.51506, -84.39828

Hourly Observations for November 8, 2019

Temp ( °F °C ) Dew Point ( °F °C ) Humidity (%) Winds ( mph kmh ) Pressure ( in mb ) Visibility ( mi km ) Precip ( " mm )
12:15 am 00:15 Clear 26 -3.3 19 -7.2 75 75 NNW 7 11 30.45 1031 10 16.0934 0 0
12:35 am 00:35 Clear 25 -3.7 19 -7.4 76 76 N 6 9 30.47 1032 10 16.0934 0 0
12:55 am 00:55 Clear 25 -3.7 18 -7.9 73 73 NNW 10 17 30.47 1032 10 16.0934 0 0
1:15 am 01:15 Clear 25 -4 17 -8.2 73 73 NNW 7 11 30.47 1032 10 16.0934 0 0
1:35 am 01:35 Clear 24 -4.4 17 -8.4 74 74 NNW 6 9 30.47 1032 10 16.0934 0 0
1:55 am 01:55 Clear 24 -4.4 17 -8.6 73 73 NNW 7 11 30.47 1032 10 16.0934 0 0
2:15 am 02:15 Clear 24 -4.5 16 -8.7 73 73 NNW 6 9 30.47 1032 10 16.0934 0 0
2:35 am 02:35 Clear 24 -4.7 16 -9 72 72 NNW 6 9 30.48 1032 10 16.0934 0 0
2:55 am 02:55 Clear 23 -4.8 16 -9 73 73 NNW 6 9 30.48 1032 10 16.0934 0 0
3:15 am 03:15 Clear 23 -5.1 15 -9.2 73 73 NNW 5 7 30.49 1033 10 16.0934 0 0
3:35 am 03:35 Clear 23 -5.1 15 -9.3 73 73 NNW 6 9 30.49 1033 10 16.0934 0 0
3:55 am 03:55 Clear 22 -5.3 15 -9.5 73 73 NNW 6 9 30.49 1033 10 16.0934 0 0
4:15 am 04:15 Clear 22 -5.3 15 -9.4 73 73 NNW 6 9 30.49 1033 10 16.0934 0 0
4:35 am 04:35 Clear 22 -5.3 15 -9.4 73 73 NW 3 6 30.49 1033 10 16.0934 0 0
4:55 am 04:55 Clear 22 -5.6 15 -9.6 74 74 NW 5 7 30.49 1033 10 16.0934 0 0
5:15 am 05:15 Clear 22 -5.8 15 -9.5 75 75 NW 3 6 30.49 1033 10 16.0934 0 0
5:35 am 05:35 Clear 21 -6.1 15 -9.5 77 77 NNW 3 6 30.49 1033 10 16.0934 0 0
5:55 am 05:55 Clear 20 -6.4 15 -9.6 78 78 NW 3 6 30.49 1033 10 16.0934 0 0
6:15 am 06:15 Clear 20 -6.6 15 -9.7 79 79 Calm 30.5 1033 10 16.0934 0 0
6:35 am 06:35 Clear 19 -7.2 15 -9.5 84 84 Calm 30.51 1033 10 16.0934 0 0
6:55 am 06:55 Clear 20 -6.6 15 -9.4 81 81 ENE 3 6 30.51 1033 10 16.0934 0 0
7:15 am 07:15 Sunny 21 -6.3 15 -9.4 79 79 Calm 30.51 1033 10 16.0934 0 0
7:35 am 07:35 Sunny 21 -6.2 15 -9.4 78 78 Calm 30.52 1034 10 16.0934 0 0
7:55 am 07:55 Sunny 22 -5.6 16 -8.8 78 78 Calm 30.52 1034 10 16.0934 0 0
8:15 am 08:15 Sunny 23 -5.1 16 -8.8 76 76 Calm 30.53 1034 10 16.0934 0 0
8:35 am 08:35 Sunny 24 -4.2 17 -8.4 73 73 N 7 11 30.54 1034 10 16.0934 0 0
8:55 am 08:55 Sunny 26 -3.6 17 -8.2 71 71 N 6 9 30.54 1034 10 16.0934 0 0
9:15 am 09:15 Sunny 27 -2.9 18 -8 68 68 NNW 3 6 30.53 1034 10 16.0934 0 0
9:35 am 09:35 Sunny 27 -2.6 17 -8.2 66 66 N 6 9 30.53 1034 10 16.0934 0 0
9:55 am 09:55 Sunny 29 -1.8 18 -7.7 64 64 NNE 7 11 30.52 1034 10 16.0934 0 0
10:15 am 10:15 Sunny 30 -1.2 19 -7.2 64 64 N 5 7 30.52 1033 10 16.0934 0 0
10:35 am 10:35 Sunny 31 -0.5 20 -6.8 63 63 NE 5 7 30.52 1033 10 16.0934 0 0
10:55 am 10:55 Sunny 31 -0.6 19 -7 62 62 NE 8 13 30.51 1033 10 16.0934 0 0
11:15 am 11:15 Sunny 32 -0.2 19 -7.2 60 60 NNE 5 7 30.51 1033 10 16.0934 0 0
11:35 am 11:35 Sunny 32 0.2 20 -6.9 59 59 NE 7 11 30.51 1033 10 16.0934 0 0
11:55 am 11:55 Sunny 33 0.5 19 -7.3 56 56 ENE 6 9 30.49 1033 10 16.0934 0 0
12:15 pm 12:15 Partly Cloudy 34 1.2 20 -6.4 57 57 NNW 3 6 30.48 1032 10 16.0934 0 0
12:35 pm 12:35 Sunny 35 1.5 19 -7.4 52 52 NE 3 6 30.47 1032 10 16.0934 0 0
12:55 pm 12:55 Sunny 36 2.1 19 -7.4 50 50 E 6 9 30.47 1032 10 16.0934 0 0
1:15 pm 13:15 Sunny 36 2 18 -7.9 48 48 E 3 6 30.46 1031 10 16.0934 0 0
1:35 pm 13:35 Sunny 35 1.7 16 -8.8 46 46 Calm 30.46 1032 10 16.0934 0 0
1:55 pm 13:55 Sunny 36 2.2 17 -8.1 47 47 NNW 5 7 30.45 1031 10 16.0934 0 0
2:15 pm 14:15 Partly Cloudy 36 2 17 -8.4 46 46 Calm 30.44 1031 10 16.0934 0 0
2:35 pm 14:35 Sunny 36 2.2 17 -8.2 47 47 WNW 3 6 30.44 1031 10 16.0934 0 0
2:55 pm 14:55 Sunny 36 2.2 17 -8.3 46 46 Calm 30.43 1030 10 16.0934 0 0
3:15 pm 15:15 Partly Cloudy 37 2.5 17 -8.1 46 46 WSW 5 7 30.43 1030 10 16.0934 0 0
3:35 pm 15:35 Sunny 36 2.4 16 -8.9 43 43 WNW 3 6 30.43 1030 10 16.0934 0 0
3:55 pm 15:55 Sunny 36 2.2 16 -9 44 44 NNW 7 11 30.44 1031 10 16.0934 0 0
4:15 pm 16:15 Sunny 36 2 17 -8.5 46 46 NW 3 6 30.44 1031 10 16.0934 0 0
4:35 pm 16:35 Sunny 35 1.7 18 -7.7 50 50 W 3 6 30.43 1031 10 16.0934 0 0
4:55 pm 16:55 Sunny 34 1.2 19 -7 55 55 W 3 6 30.42 1030 10 16.0934 0 0
5:15 pm 17:15 Sunny 34 1.1 18 -8 51 51 W 3 6 30.42 1030 10 16.0934 0 0
5:35 pm 17:35 Clear 33 0.8 20 -6.5 59 59 Calm 30.42 1030 10 16.0934 0 0
5:55 pm 17:55 Clear 31 -0.3 23 -5.2 70 70 Calm 30.43 1030 10 16.0934 0 0
6:15 pm 18:15 Clear 30 -1.3 23 -4.9 77 77 Calm 30.43 1030 10 16.0934 0 0
6:35 pm 18:35 Clear 29 -1.9 22 -5.4 77 77 Calm 30.43 1031 10 16.0934 0 0
6:55 pm 18:55 Clear 30 -1.3 22 -5.7 72 72 NNE 3 6 30.43 1030 10 16.0934 0 0
7:15 pm 19:15 Clear 28 -2.4 22 -5.4 80 80 Calm 30.44 1031 10 16.0934 0 0
7:35 pm 19:35 Clear 27 -2.7 23 -5.2 83 83 Calm 30.44 1031 10 16.0934 0 0
7:55 pm 19:55 Clear 25 -3.7 22 -5.8 86 86 Calm 30.44 1031 10 16.0934 0 0
8:15 pm 20:15 Clear 26 -3.6 22 -5.5 87 87 Calm 30.44 1031 10 16.0934 0 0
8:35 pm 20:35 Clear 26 -3.5 22 -5.8 84 84 Calm 30.43 1030 10 16.0934 0 0
8:55 pm 20:55 Clear 24 -4.5 22 -5.7 91 91 Calm 30.42 1030 10 16.0934 0 0
9:15 pm 21:15 Clear 25 -4.1 22 -5.3 91 91 Calm 30.42 1030 10 16.0934 0 0
9:35 pm 21:35 Clear 24 -4.4 22 -5.3 94 94 Calm 30.42 1030 10 16.0934 0 0
9:55 pm 21:55 Clear 22 -5.4 20 -6.5 92 92 Calm 30.42 1030 10 16.0934 0 0
10:15 pm 22:15 Clear 24 -4.6 22 -5.7 92 92 Calm 30.41 1030 10 16.0934 0 0
10:35 pm 22:35 Clear 23 -5.2 20 -6.4 91 91 N 3 6 30.41 1030 10 16.0934 0 0
10:55 pm 22:55 Clear 22 -5.4 20 -6.4 93 93 Calm 30.39 1029 10 16.0934 0 0
11:15 pm 23:15 Clear 22 -5.5 20 -6.4 93 93 Calm 30.39 1029 10 16.0934 0 0
11:35 pm 23:35 Clear 22 -5.5 20 -6.4 93 93 Calm 30.39 1029 10 16.0934 0 0
11:55 pm 23:55 Clear 21 -6.1 20 -6.9 94 94 Calm 30.38 1029 10 16.0934 0 0

Powered by AerisWeather